period_start,C,m1,H,J0,J1,J2,J3,J4,J5,JA,JB,JC,JD,JJ,JK,JN,#
2015-01-02 00:00:59,0.13,4.71,0.00,21.29,26.25,29.24,4.84,27.74,1018.09,2031.98,1935.64,2239.41,2428.71,350.22,350.34,29.04,0000 0000 0000 0000 000000
2015-01-02 00:06:00,0.09,4.71,0.00,21.27,26.24,29.22,4.80,27.66,1018.09,2031.99,1934.75,2239.00,2428.04,349.52,349.79,29.07,0000 0000 0000 0000 000000
2015-01-02 00:11:01,0.13,4.72,0.00,21.26,26.22,29.25,4.87,27.73,1018.10,2031.99,1933.97,2238.55,2427.45,350.06,350.29,29.10,0000 0000 0000 0000 000000
2015-01-02 00:16:03,0.10,4.72,0.00,21.31,26.22,29.27,4.90,27.83,1018.09,2031.99,1933.27,2238.01,2426.82,350.12,350.31,29.13,0000 0000 0000 0000 000000
2015-01-02 00:21:04,0.15,4.73,0.00,21.30,26.22,29.25,4.88,27.68,1018.08,2031.99,1932.37,2237.43,2426.05,350.20,350.67,29.16,0000 0000 0000 0000 000000
2015-01-02 00:26:05,0.09,4.73,0.00,21.27,26.22,29.24,4.77,27.67,1017.94,2031.99,1931.64,2237.00,2425.65,349.82,350.12,29.19,0000 0000 0000 0000 000000
2015-01-02 00:31:06,0.13,4.73,0.00,21.27,26.20,29.23,4.83,27.63,1017.86,2031.99,1930.71,2236.49,2425.01,350.18,350.34,29.21,0000 0000 0000 0000 000000
2015-01-02 00:36:08,0.12,4.73,0.00,21.27,26.20,29.21,4.86,27.64,1017.62,2031.99,1929.75,2235.93,2424.30,350.05,350.11,29.24,0000 0000 0000 0000 000000
2015-01-02 00:41:09,0.18,4.74,0.00,21.26,26.20,29.19,4.84,27.85,1017.59,2031.99,1928.54,2235.08,2423.69,349.40,349.52,29.27,0000 0000 0000 0000 000000
2015-01-02 00:46:10,0.12,4.74,0.00,21.25,26.19,29.21,4.89,27.75,1017.60,2031.99,1927.71,2234.58,2423.01,349.81,350.01,29.30,0000 0000 0000 0000 000000
2015-01-02 00:51:12,0.10,4.75,0.00,21.27,26.17,29.19,4.87,27.78,1017.59,2031.99,1926.96,2234.02,2422.37,349.69,349.75,29.33,0000 0000 0000 0000 000000
2015-01-02 00:56:13,0.15,4.75,0.00,21.22,26.17,29.18,4.77,27.66,1017.59,2031.99,1926.08,2233.44,2421.74,349.89,350.07,29.36,0000 0000 0000 0000 000000
2015-01-02 01:01:15,0.10,4.76,0.00,21.20,26.17,29.21,4.80,27.72,1017.59,2031.99,1925.24,2232.95,2421.00,349.33,349.59,29.39,0000 0000 0000 0000 000000
2015-01-02 01:06:16,0.18,4.76,0.00,21.19,26.16,29.23,4.86,27.66,1017.55,2032.00,1924.29,2232.13,2420.13,350.00,350.10,29.42,0000 0000 0000 0000 000000
2015-01-02 01:11:17,0.10,4.76,0.00,21.18,26.15,29.21,4.79,27.67,1017.32,2032.00,1923.36,2231.80,2419.79,349.74,349.88,29.45,0000 0000 0000 0000 000000
2015-01-02 01:16:18,0.14,4.77,0.00,21.21,26.15,29.22,4.83,27.73,1017.13,2032.00,1922.47,2231.04,2419.03,350.08,350.00,29.48,0000 0000 0000 0000 000000
2015-01-02 01:21:19,0.11,4.77,0.00,21.21,26.15,29.16,4.77,27.65,1017.12,2032.00,1921.83,2230.66,2418.37,349.89,349.99,29.51,0000 0000 0000 0000 000000
2015-01-02 01:26:21,0.11,4.77,0.00,21.21,26.13,29.11,4.83,27.63,1017.12,2032.01,1921.00,2230.01,2417.72,350.11,349.90,29.54,0000 0000 0000 0000 000000
2015-01-02 01:31:22,0.15,4.78,0.00,21.18,26.12,29.13,4.86,27.71,1017.11,2032.00,1920.13,2229.34,2417.00,350.18,350.19,29.57,0000 0000 0000 0000 000000
2015-01-02 01:36:23,0.12,4.78,0.00,21.17,26.12,29.13,4.85,27.68,1017.11,2032.00,1919.32,2228.89,2416.21,350.09,350.24,29.60,0000 0000 0000 0000 000000
2015-01-02 01:41:24,0.17,4.79,0.00,21.18,26.12,29.15,4.89,27.58,1017.11,2032.01,1918.28,2228.07,2415.59,350.54,350.46,29.62,0000 0000 0000 0000 000000
2015-01-02 01:46:25,0.16,4.79,0.00,21.19,26.11,29.12,4.85,27.66,1017.11,2032.00,1917.23,2227.40,2414.81,350.27,350.10,29.65,0000 0000 0000 0000 000000
2015-01-02 01:51:27,0.12,4.80,0.00,21.16,26.10,29.13,4.87,27.79,1017.11,2032.01,1916.31,2226.84,2414.02,350.21,350.30,29.68,0000 0000 0000 0000 000000
2015-01-02 01:56:28,0.16,4.80,0.00,21.15,26.10,29.18,4.92,27.93,1017.11,2032.01,1915.35,2226.06,2413.24,350.09,350.39,29.71,0000 0000 0000 0000 000000
2015-01-02 02:01:29,0.16,4.80,0.00,21.18,26.10,29.12,4.85,27.68,1017.09,2032.01,1914.43,2225.51,2412.61,350.10,349.98,29.74,0000 0000 0000 0000 000000
2015-01-02 02:06:30,0.11,4.81,0.00,21.14,26.09,29.15,4.83,27.82,1016.87,2032.03,1913.36,2224.89,2411.93,349.36,349.00,29.77,0000 0000 0000 0000 000000
2015-01-02 02:11:32,0.18,4.81,0.00,21.16,26.07,29.11,4.82,27.82,1016.64,2032.05,1912.15,2224.07,2411.15,349.33,349.20,29.80,0000 0000 0000 0000 000000
2015-01-02 02:16:33,0.15,4.82,0.00,21.15,26.07,29.11,4.77,27.78,1016.62,2032.16,1911.37,2223.71,2410.82,349.65,349.47,29.83,0000 0000 0000 0000 000000
2015-01-02 02:21:34,0.21,4.82,0.00,21.15,26.07,29.12,4.86,27.58,1016.62,2032.56,1910.54,2223.02,2410.04,350.20,350.04,29.86,0000 0000 0000 0000 000000
2015-01-02 02:26:35,0.18,4.83,0.00,21.17,26.07,29.06,4.83,27.82,1016.62,2032.71,1909.69,2222.47,2409.44,349.55,349.45,29.89,0000 0000 0000 0000 000000
2015-01-02 02:31:37,0.09,4.83,0.00,21.18,26.05,29.03,4.90,27.79,1016.62,2032.85,1908.85,2221.93,2408.81,350.23,349.75,29.92,0000 0000 0000 0000 000000
2015-01-02 02:36:38,0.16,4.84,0.00,21.14,26.05,29.00,4.81,27.63,1016.62,2032.79,1907.98,2221.11,2408.03,349.45,349.54,29.95,0000 0000 0000 0000 000000
2015-01-02 02:41:39,0.18,4.84,0.00,21.12,26.05,28.98,4.91,27.88,1016.62,2032.89,1907.07,2220.58,2407.29,350.47,350.33,29.98,0000 0000 0000 0000 000000
2015-01-02 02:46:40,0.12,4.85,0.00,21.13,26.04,29.02,4.81,27.76,1016.62,2032.91,1906.18,2219.90,2406.56,350.27,350.23,30.01,0000 0000 0000 0000 000000
2015-01-02 02:51:42,0.18,4.85,0.00,21.13,26.03,29.01,4.88,27.80,1016.56,2032.91,1905.06,2219.05,2405.69,350.36,350.23,30.03,0000 0000 0000 0000 000000
2015-01-02 02:56:43,0.15,4.86,0.00,21.11,26.02,29.04,4.81,27.75,1016.45,2032.89,1904.03,2218.24,2404.91,349.95,349.82,30.06,0000 0000 0000 0000 000000
2015-01-02 03:01:44,0.14,4.86,0.00,21.09,26.02,29.03,4.80,27.73,1016.54,2032.93,1903.02,2217.75,2404.08,350.05,349.84,30.09,0000 0000 0000 0000 000000
2015-01-02 03:06:45,0.17,4.87,0.00,21.12,26.02,29.00,4.86,27.66,1016.61,2032.97,1901.96,2217.00,2403.32,350.49,350.28,30.12,0000 0000 0000 0000 000000
2015-01-02 03:11:46,0.20,4.87,0.00,21.13,26.02,28.99,4.86,27.83,1016.61,2032.96,1900.84,2216.14,2402.39,350.14,350.18,30.15,0000 0000 0000 0000 000000
2015-01-02 03:16:47,0.18,4.88,0.00,21.07,26.01,28.99,4.86,27.66,1016.60,2032.97,1899.77,2215.39,2401.66,349.79,349.64,30.18,0000 0000 0000 0000 000000
2015-01-02 03:21:49,0.16,4.88,0.00,21.10,26.00,29.00,4.89,28.01,1016.60,2032.97,1898.66,2214.67,2400.82,349.76,349.89,30.21,0000 0000 0000 0000 000000
2015-01-02 03:26:50,0.10,4.89,0.00,21.13,26.00,29.00,4.90,27.62,1016.56,2032.98,1897.83,2214.02,2400.05,350.12,350.14,30.24,0000 0000 0000 0000 000000
2015-01-02 03:31:51,0.16,4.89,0.00,21.13,26.00,28.93,4.83,27.85,1016.40,2032.97,1896.96,2213.31,2399.35,350.27,349.90,30.27,0000 0000 0000 0000 000000
2015-01-02 03:36:53,0.09,4.89,0.00,21.12,26.00,28.94,4.80,27.77,1016.41,2032.98,1896.07,2212.96,2398.76,349.60,349.44,30.30,0000 0000 0000 0000 000000
2015-01-02 03:41:54,0.16,4.90,0.00,21.12,25.99,28.93,4.84,27.73,1016.43,2032.96,1895.17,2212.15,2398.03,350.21,349.91,30.33,0000 0000 0000 0000 000000
2015-01-02 03:46:55,0.07,4.90,0.00,21.07,25.98,28.97,4.78,27.56,1016.43,2032.96,1894.71,2211.97,2397.58,349.70,349.36,30.36,0000 0000 0000 0000 000000
2015-01-02 03:51:57,0.12,4.90,0.00,21.08,25.97,28.95,4.88,27.64,1016.57,2032.98,1893.99,2211.22,2397.01,349.91,349.86,30.39,0000 0000 0000 0000 000000
2015-01-02 03:56:58,0.11,4.91,0.00,21.09,25.97,29.00,4.81,27.60,1016.57,2032.97,1893.18,2210.97,2396.36,349.93,349.89,30.42,0000 0000 0000 0000 000000
2015-01-02 04:01:59,0.12,4.91,0.00,21.08,25.97,28.95,4.93,27.76,1016.50,2032.98,1892.62,2210.28,2395.99,349.84,349.56,30.44,0000 0000 0000 0000 000000
2015-01-02 04:07:00,0.07,4.91,0.00,21.08,25.97,28.92,4.92,27.85,1016.20,2032.98,1891.97,2209.99,2395.30,350.72,350.37,30.47,0000 0000 0000 0000 000000
2015-01-02 04:12:02,0.13,4.92,0.00,21.09,25.97,28.92,4.80,27.60,1016.16,2032.98,1891.18,2209.40,2394.98,349.89,349.75,30.50,0000 0000 0000 0000 000000
2015-01-02 04:17:03,0.10,4.92,0.00,21.09,25.97,28.90,4.80,27.52,1016.15,2032.99,1890.60,2208.99,2394.15,349.38,349.21,30.53,0000 0000 0000 0000 000000
2015-01-02 04:22:05,0.11,4.92,0.00,21.08,25.96,28.88,4.77,27.53,1016.15,2032.99,1889.99,2208.35,2393.76,350.29,350.13,30.56,0000 0000 0000 0000 000000
2015-01-02 04:27:06,0.09,4.93,0.00,21.10,25.95,28.85,4.77,27.56,1016.13,2032.99,1889.25,2207.99,2393.06,349.92,349.97,30.59,0000 0000 0000 0000 000000
2015-01-02 04:32:07,0.15,4.93,0.00,21.10,25.95,28.86,4.86,27.65,1016.13,2032.99,1888.64,2207.34,2392.58,350.41,350.02,30.62,0000 0000 0000 0000 000000
2015-01-02 04:37:08,0.05,4.93,0.00,21.07,25.95,28.88,4.84,27.68,1016.13,2032.99,1887.94,2206.91,2392.00,350.11,350.05,30.65,0000 0000 0000 0000 000000
2015-01-02 04:42:10,0.17,4.94,0.00,21.08,25.95,28.87,4.87,27.78,1016.13,2032.98,1887.10,2206.08,2391.20,350.04,350.01,30.68,0000 0000 0000 0000 000000
2015-01-02 04:47:11,0.08,4.94,0.00,21.07,25.95,28.85,4.78,27.63,1016.14,2032.99,1886.49,2205.83,2390.89,349.66,349.52,30.71,0000 0000 0000 0000 000000
2015-01-02 04:52:12,0.12,4.94,0.00,21.09,25.95,28.87,4.81,27.67,1016.15,2032.99,1885.85,2205.08,2390.09,350.03,349.82,30.74,0000 0000 0000 0000 000000
2015-01-02 04:57:14,0.10,4.95,0.00,21.07,25.95,28.87,4.82,27.68,1016.14,2032.99,1885.08,2204.77,2389.73,350.43,350.13,30.77,0000 0000 0000 0000 000000
2015-01-02 05:02:15,0.13,4.95,0.00,21.10,25.94,28.86,4.73,27.68,1016.15,2032.99,1884.39,2204.03,2389.02,349.71,349.38,30.80,0000 0000 0000 0000 000000
2015-01-02 05:07:16,0.15,4.95,0.00,21.11,25.94,28.85,4.87,27.70,1016.15,2032.99,1883.69,2203.46,2388.31,350.22,349.96,30.83,0000 0000 0000 0000 000000
2015-01-02 05:12:17,0.05,4.96,0.00,21.09,25.93,28.79,4.78,27.53,1016.14,2032.99,1882.97,2202.99,2387.86,349.73,349.42,30.85,0000 0000 0000 0000 000000
2015-01-02 05:17:19,0.17,4.96,0.00,21.07,25.93,28.81,4.80,27.68,1016.13,2032.99,1882.13,2202.26,2387.07,350.24,349.83,30.88,0000 0000 0000 0000 000000
2015-01-02 05:22:20,0.08,4.96,0.00,21.09,25.92,28.86,4.83,27.51,1016.13,2032.99,1881.60,2201.95,2386.60,349.48,349.31,30.91,0000 0000 0000 0000 000000
2015-01-02 05:27:21,0.11,4.97,0.00,21.10,25.92,28.86,4.83,27.68,1016.15,2032.99,1880.93,2201.16,2385.98,350.30,350.10,30.94,0000 0000 0000 0000 000000
2015-01-02 05:32:22,0.13,4.97,0.00,21.11,25.92,28.83,4.88,27.73,1016.14,2032.99,1880.08,2200.79,2385.17,350.50,350.25,30.97,0000 0000 0000 0000 000000
2015-01-02 05:37:23,0.13,4.98,0.00,21.11,25.92,28.88,4.82,27.92,1016.13,2032.99,1879.37,2200.03,2384.74,349.76,349.65,31.00,0000 0000 0000 0000 000000
2015-01-02 05:42:24,0.14,4.98,0.00,21.10,25.92,28.80,4.85,27.68,1016.13,2032.98,1878.57,2199.37,2384.03,350.20,349.85,31.03,0000 0000 0000 0000 000000
2015-01-02 05:47:26,0.07,4.98,0.00,21.11,25.92,28.85,4.82,27.73,1016.13,2032.99,1877.97,2199.00,2383.49,349.10,349.21,31.06,0000 0000 0000 0000 000000
2015-01-02 05:52:27,0.14,4.99,0.00,21.11,25.92,28.79,4.75,27.52,1016.13,2032.99,1877.14,2198.36,2382.97,349.81,349.39,31.09,0000 0000 0000 0000 000000
2015-01-02 05:57:28,0.11,4.99,0.00,21.11,25.92,28.83,4.88,27.88,1016.09,2032.99,1876.51,2197.93,2382.17,350.03,349.63,31.12,0000 0000 0000 0000 000000
2015-01-02 06:02:30,0.11,4.99,0.00,21.09,25.92,28.78,4.92,27.93,1016.04,2032.99,1875.82,2197.14,2381.78,350.35,350.03,31.15,0000 0000 0000 0000 000000
2015-01-02 06:07:31,0.11,5.00,0.00,21.10,25.92,28.80,4.98,27.93,1015.93,2032.99,1875.02,2196.78,2381.03,349.96,349.65,31.18,0000 0000 0000 0000 000000
2015-01-02 06:12:32,0.15,5.00,0.00,21.10,25.92,28.79,4.78,27.51,1015.88,2032.99,1874.20,2196.03,2380.52,349.43,349.10,31.21,0000 0000 0000 0000 000000
2015-01-02 06:17:33,0.14,5.00,0.00,21.10,25.92,28.80,4.84,27.68,1016.09,2032.99,1873.50,2195.49,2379.89,349.91,349.72,31.24,0000 0000 0000 0000 000000
2015-01-02 06:22:35,0.10,5.01,0.00,21.10,25.92,28.83,4.86,27.68,1016.10,2032.99,1872.75,2194.95,2379.07,349.99,349.75,31.26,0000 0000 0000 0000 000000
2015-01-02 06:27:36,0.15,5.01,0.00,21.10,25.92,28.80,4.85,27.77,1016.10,2032.99,1871.93,2194.17,2378.50,350.39,350.42,31.29,0000 0000 0000 0000 000000
2015-01-02 06:32:37,0.12,5.02,0.00,21.08,25.92,28.78,4.79,27.69,1016.11,2032.99,1871.06,2193.67,2377.99,350.05,349.74,31.32,0000 0000 0000 0000 000000
2015-01-02 06:37:39,0.14,5.02,0.00,21.06,25.92,28.80,4.81,27.92,1016.13,2032.99,1870.23,2193.03,2377.24,350.15,350.00,31.35,0000 0000 0000 0000 000000
2015-01-02 06:42:40,0.14,5.02,0.00,21.06,25.92,28.77,4.87,27.84,1016.10,2033.00,1869.37,2192.41,2376.81,349.87,349.64,31.38,0000 0000 0000 0000 000000
2015-01-02 06:47:41,0.06,5.03,0.00,21.07,25.92,28.83,4.74,27.72,1016.09,2033.00,1868.89,2192.00,2376.05,349.27,348.96,31.41,0000 0000 0000 0000 000000
2015-01-02 06:52:43,0.17,5.03,0.00,21.05,25.92,28.83,4.80,27.83,1015.93,2033.00,1868.07,2191.28,2375.39,350.11,349.87,31.44,0000 0000 0000 0000 000000
2015-01-02 06:57:44,0.09,5.04,0.00,21.09,25.92,28.84,4.78,27.75,1015.71,2033.01,1867.37,2190.87,2374.89,350.11,349.77,31.47,0000 0000 0000 0000 000000
2015-01-02 07:02:46,0.15,5.04,0.00,21.07,25.92,28.81,4.81,27.85,1015.66,2033.00,1866.69,2190.07,2374.08,349.67,349.22,31.50,0000 0000 0000 0000 000000
2015-01-02 07:07:47,0.12,5.04,0.00,21.08,25.92,28.84,4.83,27.82,1015.64,2033.01,1865.97,2189.62,2373.54,350.37,349.88,31.53,0000 0000 0000 0000 000000
2015-01-02 07:12:48,0.10,5.05,0.00,21.06,25.92,28.80,4.91,27.81,1015.64,2033.00,1865.14,2188.99,2372.95,350.75,350.45,31.56,0000 0000 0000 0000 000000
2015-01-02 07:17:50,0.18,5.05,0.00,21.06,25.92,28.77,4.80,27.57,1015.64,2033.01,1864.41,2188.25,2372.12,350.70,350.07,31.59,0000 0000 0000 0000 000000
2015-01-02 07:22:51,0.07,5.05,0.00,21.07,25.92,28.80,4.77,27.69,1015.64,2033.02,1863.75,2187.91,2371.66,349.66,349.29,31.62,0000 0000 0000 0000 000000
2015-01-02 07:27:52,0.14,5.06,0.00,21.06,25.92,28.85,4.84,27.68,1015.64,2033.02,1862.96,2187.10,2371.02,349.74,349.38,31.65,0000 0000 0000 0000 000000
2015-01-02 07:32:54,0.17,5.06,0.00,21.08,25.92,28.77,4.86,27.68,1015.64,2033.01,1862.13,2186.54,2370.28,350.37,349.94,31.67,0000 0000 0000 0000 000000
2015-01-02 07:37:55,0.10,5.07,0.00,21.07,25.92,28.76,4.80,27.85,1015.64,2033.01,1861.55,2185.99,2369.70,349.66,349.30,31.70,0000 0000 0000 0000 000000
2015-01-02 07:42:56,0.13,5.07,0.00,21.10,25.92,28.78,4.87,27.94,1015.64,2033.00,1860.83,2185.19,2369.02,350.32,349.71,31.73,0000 0000 0000 0000 000000
2015-01-02 07:47:57,0.10,5.07,0.00,21.11,25.92,28.80,4.88,27.54,1015.64,2033.01,1860.04,2184.93,2368.37,351.33,350.76,31.76,0000 0000 0000 0000 000000
2015-01-02 07:52:59,0.15,5.08,0.00,21.09,25.92,28.78,4.86,27.71,1015.64,2033.02,1859.23,2184.14,2367.86,350.51,349.88,31.79,0000 0000 0000 0000 000000
2015-01-02 07:58:00,0.14,5.08,0.00,21.09,25.92,28.77,4.86,27.68,1015.64,2033.01,1858.49,2183.59,2367.07,349.80,349.47,31.82,0000 0000 0000 0000 000000
2015-01-02 08:03:02,0.08,5.08,0.00,21.11,25.92,28.82,4.79,27.76,1015.64,2033.01,1857.83,2183.01,2366.71,350.03,349.61,31.85,0000 0000 0000 0000 000000
2015-01-02 08:08:03,0.14,5.09,0.00,21.12,25.92,28.82,4.85,27.67,1015.61,2033.01,1857.04,2182.37,2366.03,350.03,349.56,31.88,0000 0000 0000 0000 000000
2015-01-02 08:13:04,0.13,5.09,0.00,21.13,25.92,28.80,4.72,27.73,1015.62,2033.01,1856.25,2181.92,2365.37,350.06,349.78,31.91,0000 0000 0000 0000 000000
2015-01-02 08:18:06,0.14,5.10,0.00,21.13,25.92,28.83,4.79,27.69,1015.58,2033.00,1855.55,2181.12,2364.81,349.66,349.04,31.94,0000 0000 0000 0000 000000
2015-01-02 08:23:07,0.11,5.10,0.00,21.15,25.93,28.76,4.84,27.77,1015.33,2033.00,1854.94,2180.59,2364.04,350.12,349.48,31.97,0000 0000 0000 0000 000000
2015-01-02 08:28:08,0.12,5.10,0.00,21.17,25.94,28.74,4.78,27.57,1015.30,2033.00,1854.11,2179.99,2363.44,350.28,349.71,32.00,0000 0000 0000 0000 000000
2015-01-02 08:33:09,0.15,5.11,0.00,21.15,25.94,28.75,4.82,27.87,1015.18,2033.00,1853.42,2179.28,2362.86,349.64,348.91,32.03,0000 0000 0000 0000 000000
2015-01-02 08:38:11,0.11,5.11,0.00,21.15,25.95,28.76,4.81,27.88,1015.17,2033.00,1852.66,2178.86,2362.06,349.70,349.13,32.06,0000 0000 0000 0000 000000
2015-01-02 08:43:12,0.12,5.12,0.00,21.15,25.95,28.77,4.87,27.92,1015.16,2033.00,1852.00,2178.09,2361.56,350.29,349.65,32.08,0000 0000 0000 0000 000000
2015-01-02 08:48:13,0.12,5.12,0.00,21.19,25.95,28.77,4.89,27.98,1015.15,2033.00,1851.24,2177.72,2360.99,350.43,349.79,32.11,0000 0000 0000 0000 000000
2015-01-02 08:53:14,0.14,5.12,0.00,21.18,25.95,28.78,4.81,27.81,1015.15,2033.00,1850.52,2177.02,2360.24,349.88,349.25,32.14,0000 0000 0000 0000 000000
2015-01-02 08:58:15,0.12,5.13,0.00,21.18,25.95,28.78,4.86,27.81,1015.08,2033.00,1849.82,2176.42,2359.72,350.20,349.67,32.17,0000 0000 0000 0000 000000
2015-01-02 09:03:17,0.09,5.13,0.00,21.19,25.96,28.76,4.75,27.72,1015.08,2033.00,1849.03,2175.89,2359.00,350.09,349.36,32.20,0000 0000 0000 0000 000000
2015-01-02 09:08:18,0.17,5.14,0.00,21.21,25.97,28.75,4.90,27.88,1014.94,2033.00,1848.22,2175.09,2358.17,350.83,350.06,32.23,0000 0000 0000 0000 000000
2015-01-02 09:13:19,0.07,5.14,0.00,21.20,25.97,28.80,4.79,27.75,1014.96,2033.00,1847.64,2174.87,2357.80,350.29,349.35,32.26,0000 0000 0000 0000 000000
2015-01-02 09:18:20,0.12,5.14,0.00,21.20,25.97,28.77,4.76,27.90,1015.09,2033.00,1846.99,2174.07,2357.02,349.86,349.30,32.29,0000 0000 0000 0000 000000
2015-01-02 09:23:22,0.17,5.15,0.00,21.22,25.97,28.80,4.91,27.73,1015.11,2033.00,1846.16,2173.57,2356.21,350.19,349.46,32.32,0000 0000 0000 0000 000000
2015-01-02 09:28:23,0.12,5.15,0.00,21.25,25.99,28.81,4.88,27.77,1014.95,2032.99,1845.33,2172.94,2355.62,349.91,349.36,32.35,0000 0000 0000 0000 000000
2015-01-02 09:33:25,0.15,5.15,0.00,21.24,26.00,28.81,4.75,27.73,1014.73,2032.99,1844.53,2172.14,2354.95,349.49,348.50,32.38,0000 0000 0000 0000 000000
2015-01-02 09:38:26,0.17,5.16,0.00,21.23,26.00,28.79,4.86,27.94,1014.70,2032.99,1843.64,2171.48,2354.05,350.17,349.19,32.41,0000 0000 0000 0000 000000
2015-01-02 09:43:27,0.15,5.16,0.00,21.24,26.00,28.80,4.80,27.59,1014.69,2032.99,1842.70,2170.78,2353.12,349.93,349.03,32.44,0000 0000 0000 0000 000000
2015-01-02 09:48:28,0.13,5.17,0.00,21.26,26.00,28.83,4.82,27.65,1014.68,2032.99,1841.87,2170.03,2352.52,349.81,348.82,32.47,0000 0000 0000 0000 000000
2015-01-02 09:53:30,0.13,5.17,0.00,21.26,26.02,28.80,4.79,27.88,1014.68,2032.98,1841.01,2169.33,2351.89,349.73,348.88,32.50,0000 0000 0000 0000 000000
2015-01-02 09:58:31,0.15,5.18,0.00,21.26,26.02,28.82,4.78,27.82,1014.67,2032.96,1840.11,2168.70,2351.05,349.67,348.71,32.52,0000 0000 0000 0000 000000
2015-01-02 10:03:32,0.16,5.18,0.00,21.29,26.02,28.83,4.73,27.69,1014.66,2032.97,1839.26,2168.01,2350.22,349.37,348.54,32.55,0000 0000 0000 0000 000000
2015-01-02 10:08:33,0.15,5.19,0.00,21.27,26.02,28.82,4.82,27.79,1014.66,2032.96,1838.40,2167.24,2349.71,349.90,349.04,32.58,0000 0000 0000 0000 000000
2015-01-02 10:13:35,0.13,5.19,0.00,21.28,26.04,28.84,4.78,27.77,1014.66,2032.97,1837.60,2166.76,2349.02,349.84,348.89,32.61,0000 0000 0000 0000 000000
2015-01-02 10:18:36,0.14,5.19,0.00,21.30,26.05,28.84,4.83,27.67,1014.63,2032.98,1836.71,2166.03,2348.23,349.89,348.82,32.64,0000 0000 0000 0000 000000
2015-01-02 10:23:37,0.16,5.20,0.00,21.33,26.05,28.83,4.92,27.76,1014.63,2032.97,1835.88,2165.28,2347.60,350.53,349.51,32.67,0000 0000 0000 0000 000000
2015-01-02 10:28:38,0.08,5.20,0.00,21.34,26.06,28.84,4.86,27.55,1014.55,2032.97,1835.11,2164.85,2346.93,350.27,349.21,32.70,0000 0000 0000 0000 000000
2015-01-02 10:33:39,0.17,5.21,0.00,21.33,26.07,28.86,4.86,27.93,1014.44,2032.95,1834.45,2164.07,2346.10,350.16,348.91,32.73,0000 0000 0000 0000 000000
2015-01-02 10:38:41,0.17,5.21,0.00,21.36,26.07,28.87,4.89,27.95,1014.32,2032.91,1833.56,2163.35,2345.32,350.33,349.14,32.76,0000 0000 0000 0000 000000
2015-01-02 10:43:42,0.12,5.21,0.00,21.36,26.08,28.86,4.86,27.81,1014.21,2032.80,1832.75,2162.67,2344.48,349.78,348.57,32.79,0000 0000 0000 0000 000000
2015-01-02 10:48:43,0.09,5.22,0.00,21.35,26.10,28.86,4.77,27.73,1014.20,2032.70,1831.88,2161.95,2343.72,349.70,348.48,32.82,0000 0000 0000 0000 000000
2015-01-02 10:53:45,0.08,5.22,0.00,21.37,26.10,28.88,4.74,27.62,1014.18,2032.34,1830.96,2161.12,2342.90,349.87,348.72,32.85,0000 0000 0000 0000 000000
2015-01-02 10:58:46,0.17,5.23,0.00,21.37,26.11,28.88,4.82,27.79,1014.18,2032.18,1830.06,2160.44,2342.08,349.90,348.66,32.88,0000 0000 0000 0000 000000
2015-01-02 11:03:47,0.11,5.23,0.00,21.39,26.12,28.90,4.80,27.77,1014.18,2032.10,1829.17,2159.88,2341.29,350.18,348.98,32.91,0000 0000 0000 0000 000000
2015-01-02 11:08:48,0.16,5.23,0.00,21.41,26.12,28.90,4.80,27.74,1014.18,2032.06,1828.35,2159.06,2340.62,350.13,348.94,32.93,0000 0000 0000 0000 000000
2015-01-02 11:13:50,0.14,5.24,0.00,21.41,26.13,28.89,4.84,27.99,1014.18,2032.03,1827.55,2158.35,2339.94,349.57,348.45,32.96,0000 0000 0000 0000 000000
2015-01-02 11:18:51,0.11,5.24,0.00,21.44,26.15,28.89,4.83,27.60,1014.18,2032.01,1826.76,2157.80,2339.10,349.58,348.35,32.99,0000 0000 0000 0000 000000
2015-01-02 11:23:52,0.13,5.25,0.00,21.47,26.15,28.92,4.80,27.66,1014.17,2032.01,1826.03,2157.06,2338.50,349.41,347.99,33.02,0000 0000 0000 0000 000000
2015-01-02 11:28:54,0.14,5.25,0.00,21.44,26.16,28.93,4.79,27.67,1014.17,2032.00,1825.20,2156.57,2337.95,349.49,348.26,33.05,0000 0000 0000 0000 000000
2015-01-02 11:33:55,0.12,5.25,0.00,21.49,26.17,28.94,4.70,27.61,1014.17,2032.01,1824.61,2156.00,2337.11,349.23,347.82,33.08,0000 0000 0000 0000 000000
2015-01-02 11:38:56,0.14,5.26,0.00,21.52,26.17,28.95,4.81,27.71,1014.17,2032.01,1823.84,2155.37,2336.63,349.88,348.58,33.11,0000 0000 0000 0000 000000
2015-01-02 11:43:58,0.11,5.26,0.00,21.50,26.20,28.95,4.84,27.66,1014.17,2032.00,1822.97,2154.77,2335.92,350.59,349.19,33.14,0000 0000 0000 0000 000000
2015-01-02 11:48:59,0.16,5.27,0.00,21.53,26.20,28.95,4.81,27.61,1014.17,2032.00,1822.09,2154.02,2335.05,350.41,349.07,33.17,0000 0000 0000 0000 000000
2015-01-02 11:54:00,0.19,5.27,0.00,21.53,26.21,28.97,4.80,27.67,1014.13,2032.00,1821.24,2153.23,2334.24,349.47,348.11,33.20,0000 0000 0000 0000 000000
2015-01-02 11:59:01,0.14,5.27,0.00,21.52,26.22,28.97,4.84,27.69,1014.11,2032.00,1820.39,2152.71,2333.60,350.12,348.70,33.23,0000 0000 0000 0000 000000
2015-01-02 12:04:03,0.15,5.28,0.00,21.55,26.22,28.97,4.79,27.85,1013.91,2032.00,1819.51,2151.94,2332.72,349.93,348.37,33.26,0000 0000 0000 0000 000000
2015-01-02 12:09:04,0.18,5.29,0.00,21.57,26.24,29.01,4.79,27.70,1013.72,2032.00,1818.45,2151.07,2331.84,349.82,348.23,33.29,0000 0000 0000 0000 000000
2015-01-02 12:14:05,0.18,5.29,0.00,21.61,26.25,29.00,4.85,27.91,1013.71,2031.99,1817.42,2150.23,2331.01,350.03,348.24,33.31,0000 0000 0000 0000 000000
2015-01-02 12:19:06,0.18,5.30,0.00,21.63,26.25,29.02,4.80,27.94,1013.70,2031.99,1816.40,2149.61,2330.23,350.44,348.68,33.34,0000 0000 0000 0000 000000
2015-01-02 12:24:07,0.14,5.30,0.00,21.61,26.26,29.04,4.79,27.70,1013.69,2031.99,1815.48,2148.92,2329.43,350.17,348.52,33.37,0000 0000 0000 0000 000000
2015-01-02 12:29:08,0.19,5.31,0.00,21.63,26.27,29.04,4.85,27.68,1013.70,2031.99,1814.45,2148.10,2328.61,350.61,348.91,33.40,0000 0000 0000 0000 000000
2015-01-02 12:34:09,0.16,5.31,0.00,21.64,26.27,29.06,4.77,27.62,1013.69,2031.98,1813.45,2147.22,2327.90,349.74,348.04,33.43,0000 0000 0000 0000 000000
2015-01-02 12:39:10,0.16,5.31,0.00,21.64,26.28,29.06,4.73,27.77,1013.69,2031.93,1812.51,2146.59,2327.04,349.41,347.51,33.46,0000 0000 0000 0000 000000
2015-01-02 12:44:12,0.10,5.32,0.00,21.64,26.29,29.09,4.84,27.68,1013.70,2031.92,1811.81,2146.00,2326.20,350.03,348.32,33.49,0000 0000 0000 0000 000000
2015-01-02 12:49:13,0.16,5.32,0.00,21.66,26.30,29.06,4.84,27.69,1013.70,2031.96,1811.03,2145.32,2325.68,350.16,348.36,33.52,0000 0000 0000 0000 000000
2015-01-02 12:54:14,0.09,5.33,0.00,21.66,26.30,29.07,4.82,27.57,1013.74,2031.97,1810.48,2144.95,2325.02,350.16,348.30,33.55,0000 0000 0000 0000 000000
2015-01-02 12:59:15,0.12,5.33,0.00,21.65,26.32,29.09,4.76,27.70,1013.73,2031.79,1809.72,2144.15,2324.24,349.62,348.05,33.58,0000 0000 0000 0000 000000